This demonstration page uses our WeatherBlox Daily Observations layout. Learn more.

Left ArrowRight Arrow

Hourly Observations for December 1, 2017

Temp ( °F °C ) Dew Point ( °F °C ) Humidity (%) Winds ( mph kmh ) Pressure ( in mb ) Visibility ( mi km ) Precip ( " mm )
12:16 am 00:16 Cloudy with Mist and Fog 58 14.4 58 14.4 100 100 Calm 30.12 1020 5 8 0.00 0.00
12:48 am 00:48 Cloudy with Mist and Fog 57 14 57 14 100 100 NNW 3 6 30.09 1019 2 2 0.00 0.00
12:51 am 00:51 Cloudy with Fog 54 12 54 12 100 100 Calm 30.12 1020 1 1 0.00 0.00
12:53 am 00:53 Cloudy with Fog 54 12.2 54 12.2 100 100 Calm 30.08 1019 1 1 0.00 0.00
1:01 am 01:01 Mostly Cloudy with Mist and Fog 54 12.2 54 12.2 100 100 Calm 30.12 1020 4 6 0.00 0.00
1:53 am 01:53 Mostly Cloudy with Mist and Fog 56 13.3 56 13.3 100 100 Calm 30.09 1019 4 6 0.00 0.00
2:00 am 02:00 Cloudy with Mist and Fog 56 13.3 56 13.3 100 100 Calm 30.12 1020 6 10 0.00 0.00
2:53 am 02:53 Cloudy 59 15 59 15 100 100 Calm 30.09 1019 8 13 0.00 0.00
3:13 am 03:13 Cloudy with Mist and Fog 57 13.9 57 13.9 100 100 Calm 30.12 1020 6 10 0.00 0.00
3:53 am 03:53 Clear with Mist and Fog 55 12.8 55 12.8 100 100 Calm 30.09 1019 4 6 0.00 0.00
4:00 am 04:00 Clear with Mist and Fog 53 11.7 53 11.7 100 100 Calm 30.15 1021 2 2 0.00 0.00
4:03 am 04:03 Mostly Cloudy with Fog 53 11.7 53 11.7 100 100 Calm 30.15 1021 1 1 0.00 0.00
4:14 am 04:14 Mostly Cloudy with Mist and Fog 55 12.8 55 12.8 100 100 Calm 30.09 1019 1 2 0.00 0.00
4:16 am 04:16 Mostly Clear with Mist and Fog 56 13.3 56 13.3 100 100 Calm 30.09 1019 3 4 0.00 0.00
4:23 am 04:23 Mostly Clear with Mist and Fog 54 12.2 54 12.2 100 100 Calm 30.12 1020 4 6 0.00 0.00
4:26 am 04:26 Mostly Cloudy with Mist and Fog 53 11.7 53 11.7 100 100 Calm 30.12 1020 1 2 0.00 0.00
4:28 am 04:28 Mostly Cloudy with Fog 53 11.7 53 11.7 100 100 Calm 30.12 1020 1 1 0.00 0.00
4:36 am 04:36 Mostly Cloudy with Fog 52 11.1 52 11.1 100 100 Calm 30.12 1020 0 0 0.00 0.00
4:48 am 04:48 Mostly Cloudy with Mist and Fog 54 12 54 12 100 100 Calm 30.12 1020 1 1 0.00 0.00
4:51 am 04:51 Mostly Cloudy with Mist and Fog 54 12 54 12 100 100 Calm 30.12 1020 2 3 0.00 0.00
4:53 am 04:53 Cloudy with Mist and Fog 53 11.7 53 11.7 100 100 Calm 30.09 1019 3 4 0.00 0.00
5:00 am 05:00 Cloudy with Mist and Fog 54 12.2 54 12.2 100 100 Calm 30.12 1020 4 6 0.00 0.00
5:53 am 05:53 Mostly Cloudy with Mist and Fog 54 12.2 54 12.2 100 100 Calm 30.09 1019 3 5 0.00 0.00
6:04 am 06:04 Mostly Clear with Mist and Fog 53 11.7 53 11.7 100 100 Calm 30.15 1021 3 5 0.00 0.00
6:32 am 06:32 Mostly Cloudy with Mist and Fog 53 11.7 53 11.7 100 100 Calm 30.15 1021 3 5 0.00 0.00
6:53 am 06:53 Cloudy with Mist and Fog 54 12.2 54 12.2 100 100 Calm 30.12 1020 3 5 0.00 0.00
7:19 am 07:19 Cloudy with Mist and Fog 54 12.2 54 12.2 100 100 Calm 30.18 1022 5 8 0.00 0.00
7:28 am 07:28 Cloudy with Mist and Fog 53 11.7 53 11.7 100 100 NNE 3 6 30.18 1022 4 6 0.00 0.00
7:53 am 07:53 Cloudy with Mist and Fog 55 12.8 55 12.8 100 100 Calm 30.14 1021 4 6 0.00 0.00
8:53 am 08:53 Cloudy with Mist and Fog 57 13.9 57 13.9 100 100 Calm 30.15 1021 4 6 0.00 0.00
9:53 am 09:53 Cloudy with Mist and Fog 57 13.9 56 13.3 96 96 N 5 7 30.16 1021 4 6 0.00 0.00
10:53 am 10:53 Cloudy with Mist and Fog 58 14.4 56 13.3 93 93 Calm 30.16 1022 5 8 0.00 0.00
11:53 am 11:53 Cloudy with Mist and Fog 58 14.4 56 13.3 93 93 Calm 30.16 1021 6 10 0.00 0.00
12:40 pm 12:40 Cloudy 59 15 56 13.3 90 90 Calm 30.15 1021 7 11 0.00 0.00
12:53 pm 12:53 Cloudy 60 15.6 56 13.3 86 86 Calm 30.14 1021 7 11 0.00 0.00
1:53 pm 13:53 Cloudy 62 16.7 56 13.3 80 80 NNW 5 7 30.12 1020 7 11 0.00 0.00
2:53 pm 14:53 Sunny 64 17.8 56 13.3 75 75 N 6 9 30.11 1020 9 14 0.00 0.00
3:53 pm 15:53 Sunny 64 17.8 55 12.8 73 73 NW 3 6 30.10 1019 10 16 0.00 0.00
4:53 pm 16:53 Sunny 64 17.8 55 12.8 73 73 Calm 30.11 1020 10 16 0.00 0.00
5:53 pm 17:53 Clear 60 15.6 55 12.8 84 84 Calm 30.11 1020 10 16 0.00 0.00
6:53 pm 18:53 Clear with Mist and Fog 55 12.8 55 12.8 100 100 Calm 30.13 1020 6 10 0.00 0.00
7:53 pm 19:53 Clear with Mist and Fog 52 11.1 52 11.1 100 100 Calm 30.14 1021 4 6 0.00 0.00
7:58 pm 19:58 Clear with Mist and Fog 52 11.1 52 11.1 100 100 Calm 30.18 1022 2 3 0.00 0.00
8:28 pm 20:28 Clear with Fog 51 10.6 51 10.6 100 100 Calm 30.18 1022 1 1 0.00 0.00
8:38 pm 20:38 Clear 52 11.1 52 11.1 100 100 Calm 30.18 1022 7 11 0.00 0.00
8:53 pm 20:53 Mostly Clear 51 10.6 51 10.6 100 100 Calm 30.14 1021 7 11 0.00 0.00
9:37 pm 21:37 Mostly Cloudy with Mist and Fog 50 10 50 10 100 100 Calm 30.18 1022 6 10 0.00 0.00
9:46 pm 21:46 Mostly Cloudy with Mist and Fog 50 10 50 10 100 100 Calm 30.18 1022 6 10 0.00 0.00
9:53 pm 21:53 Mostly Cloudy with Mist and Fog 49 9.4 49 9.4 100 100 Calm 30.15 1021 6 10 0.00 0.00
10:07 pm 22:07 Partly Cloudy with Mist and Fog 49 9.4 49 9.4 100 100 Calm 30.18 1022 6 10 0.00 0.00
10:53 pm 22:53 Mostly Clear with Mist and Fog 48 8.9 48 8.9 100 100 Calm 30.16 1021 5 8 0.00 0.00
11:53 pm 23:53 Partly Cloudy with Mist and Fog 48 8.9 48 8.9 100 100 Calm 30.16 1021 5 8 0.00 0.00
11:55 pm 23:55 Mostly Cloudy with Fog 48 8.9 48 8.9 100 100 Calm 30.18 1022 1 1 0.00 0.00

Powered by AerisWeather